Location: Valdosta
(30.8330°N, 83.2790°W)
Time: 17:49:01
(UTC-04:00)

Daily predictions for brighter satellites

Satellite Brightness Start Highest point End
(mag) Time Altitude Azimuth Time Altitude Azimuth Time Altitude Azimuth
OAO 3 Copernicus 4.4 20:48:24 10° WNW 20:53:28 81° SSW 20:58:31 10° ESE
COSMOS 2455 2.8 20:52:32 10° SSW 20:58:27 69° ESE 21:04:26 10° NNE
Cosmos 2369 Rocket 4.2 20:56:36 10° NE 20:58:29 12° NE 21:00:23 10° ENE
ERS-1 Rocket 4.1 20:58:12 10° SE 21:02:17 26° ENE 21:06:24 10° NNE
Cosmos 1666 3.3 21:00:24 10° N 21:04:04 39° E 21:07:43 10° SSE
CZ-4 DEB 3.4 21:01:21 10° SE 21:04:22 38° ENE 21:07:23 10° N
BREEZE-M DEB (TANK) 4.2 21:04:05 10° NW 21:08:28 80° SW 21:26:49 10° SE
Resurs 01 Rocket 3.6 21:05:51 10° SSW 21:09:44 30° W 21:13:38 10° NW
CZ-4B DEB 4.5 21:08:36 10° SSW 21:11:42 35° W 21:14:48 10° NNW
BREEZE-M DEB (TANK) 4.0 21:10:24 10° N 21:11:55 15° NE 21:13:21 10° ENE
Cosmos 1726 Rocket 4.2 21:11:02 10° NNW 21:15:23 59° W 21:19:40 10° S
Envisat 4.5 21:17:06 11° ESE 21:20:26 21° ENE 21:24:06 10° NNE
Cosmos 407 Rocket 4.5 21:17:38 10° SSE 21:21:57 26° E 21:26:13 10° NE
CZ-2D R/B 3.5 21:18:33 10° S 21:22:25 75° WSW 21:26:21 10° NNW
Cosmos 1891 Rocket 4.5 21:18:54 10° N 21:24:56 63° E 21:30:52 10° SSE
Milstar 3 Cent rocket 3.6 21:18:52 10° W 21:28:04 41° SSW 21:32:33 15° SE
FENGYUN 3A 3.7 21:25:04 10° SSE 21:30:26 86° WSW 21:35:51 10° NNW
Cosmos 1515 4.4 21:27:57 13° SSE 21:31:00 34° E 21:34:32 10° NNE
CZ-2C R/B 0.8 21:31:16 27° SE 21:32:08 41° ENE 21:34:19 10° N
Cosmos 1602 Rocket 3.7 21:28:08 10° S 21:32:35 80° W 21:37:05 10° N
Cosmos 1825 Rocket 4.5 21:33:30 17° SE 21:36:07 30° E 21:39:58 10° NNE
USA 186 2.8 21:38:43 10° SSW 21:41:20 35° W 21:43:47 10° NNW
ALOS 2.9 21:38:52 10° S 21:43:24 54° W 21:47:59 10° NNW
Lacrosse 4 Rocket 1.2 21:40:53 10° SSW 21:44:54 78° ESE 21:48:57 10° NNE
deb Centaur AC-2 4.3 21:41:13 10° W 21:45:53 79° S 21:49:44 20° E
Cosmos 1943 Rocket 4.2 21:46:22 10° NE 21:48:09 11° ENE 21:49:55 10° ENE
Cosmos 1812 Rocket 3.5 21:45:04 10° N 21:49:27 66° E 21:52:17 22° SSE
Delta 198 4.3 21:49:28 10° SW 21:52:40 24° S 21:52:43 24° S
Atlas Centaur 2 2.8 21:46:32 10° W 21:53:19 87° S 22:00:12 16° E
Cosmos 1943 3.3 21:49:08 10° SSW 21:54:47 80° WNW 22:00:29 10° NNE
SeaSat 1 4.1 21:52:49 16° E 21:54:49 20° ENE 21:58:18 10° NNE
Tsikada Rocket 4.3 21:48:48 10° SSW 21:55:11 73° W 22:01:34 10° N
H-2A R/B 2.0 21:53:24 23° SSE 21:56:04 81° ENE 22:00:26 10° N
Cosmos 1992 Rocket 4.2 21:52:42 10° N 21:57:49 53° ENE 22:00:17 29° SE
Meteor 2-12 Rocket 4.3 22:03:50 10° N 22:09:55 80° E 22:13:42 24° S
Mugunghwa Rocket 4.1 22:04:42 10° WSW 22:10:46 51° S 22:13:45 29° ESE
OAO 1 Rocket 4.3 22:08:48 10° WSW 22:14:04 65° SSE 22:17:18 23° E
Cosmos 1939 Rocket 3.0 22:12:46 33° S 22:14:32 78° WSW 22:18:41 10° NNW
Centaur D AC-28 2.6 22:11:21 10° W 22:14:39 30° SSW 22:15:06 29° S
USA 81 4.1 22:10:09 10° N 22:15:21 58° E 22:17:12 37° SE
CZ-4B R/B 3.6 22:11:47 10° NNE 22:16:54 60° ESE 22:19:12 32° SSE
CZ-4 R/B 4.4 22:13:05 10° NNE 22:17:47 39° E 22:18:13 38° ESE
Delta 168 4.0 22:15:19 10° WSW 22:17:16 23° SSW 22:17:16 23° SSW
ARGOS 4.2 22:18:00 27° E 22:19:06 29° ENE 22:23:43 10° NNE
ATLAS 3B R/B 3.5 22:11:46 10° SW 22:19:20 60° WNW 22:26:50 10° NNE
Cosmos 1346 Rocket 2.6 22:19:41 47° S 22:20:45 88° E 22:24:41 10° N
SPOT 5 2.5 22:21:02 49° SSE 22:22:10 76° ENE 22:26:29 10° N
Cosmos 2142 Rocket 4.5 22:17:16 10° N 22:23:27 65° E 22:25:55 37° SSE
Cosmos 1953 Rocket 3.4 22:23:11 41° S 22:24:43 86° E 22:29:10 10° N
CZ-4 SHROUD 3.3 22:25:30 74° NW 22:25:30 74° NW 22:28:28 10° NNW
MetOp-B 4.2 22:24:19 42° SE 22:25:57 62° ENE 22:31:14 10° N
PSLV R/B 3.4 22:26:38 66° NNW 22:26:38 66° NNW 22:29:23 10° NNW
Cosmos 1140 Rocket 4.0 22:26:31 38° E 22:26:31 38° E 22:31:10 10° NE
Cosmos 1634 Rocket 3.9 22:24:23 10° N 22:30:35 79° E 22:33:08 38° SSE
H-2A R/B 3.7 22:33:42 17° ENE 22:33:42 17° ENE 22:36:53 10° NNE
Meteor 1-21 4.2 22:31:59 39° SSE 22:34:10 72° E 22:39:58 10° NNE
Cosmos 1607 4.0 22:32:57 38° SSE 22:35:00 54° ESE 22:41:03 10° NE
Cosmos 676 Rocket 4.2 22:32:59 16° SSW 22:37:19 72° WNW 22:42:40 10° NNE
SPOT 1/Viking Rocket 3.5 22:41:55 57° ESE 22:42:34 63° ENE 22:47:39 10° N
Cosmos 2369 Rocket 2.2 22:37:28 10° NNW 22:43:07 79° WSW 22:44:35 51° S
YAOGAN 6 3.1 22:43:54 55° NNE 22:43:54 55° NNE 22:46:57 10° N
Cosmos 2279 Rocket 4.0 22:42:58 10° N 22:49:10 62° E 22:50:14 54° SE
SL-08 RB Rocket 4.3 22:51:27 45° NE 22:51:27 45° NE 22:55:16 10° N
NOAA 11 4.3 22:51:03 54° E 22:51:25 55° ENE 22:56:42 10° N
Cosmos 1766 3.9 22:52:08 10° N 22:55:14 51° N 22:55:14 51° N
Cosmos 1758 Rocket 4.5 22:57:13 38° WSW 22:58:13 44° W 23:02:24 10° N
Envisat 4.2 22:57:18 27° SW 22:59:08 35° W 23:03:46 10° NNW
CZ-4C R/B 3.9 23:03:36 19° ENE 23:03:36 19° ENE 23:05:27 10° NE
USA 238 DEB 4.1 22:59:58 10° SW 23:07:00 64° WNW 23:14:02 10° NNE
USA 238 4.1 23:00:04 10° SW 23:07:06 65° WNW 23:14:08 10° NNE
Cosmos 2180 Rocket 4.4 23:11:47 10° N 23:18:07 89° W 23:18:43 75° S
COSMOS 2406 3.7 23:21:23 42° WSW 23:23:03 57° WNW 23:28:41 10° N
SeaSat 1 3.4 23:32:37 41° W 23:32:37 41° W 23:36:42 10° NW
Cosmos 1943 Rocket 2.3 23:26:52 10° NNW 23:31:53 70° NW 23:31:53 70° NW
Cosmos 1656 Rocket 4.4 23:33:43 10° N 23:38:15 46° NNE 23:38:15 46° NNE
NOSS 3-2 (C) 4.0 23:43:08 48° NE 23:43:08 48° NE 23:47:44 10° NNE
Atlas Centaur 2 3.0 23:35:38 10° W 23:42:50 65° SSW 23:42:50 65° SSW
Cosmos 1092 Rocket 4.1 23:51:45 75° NW 23:51:45 75° NW 23:57:36 10° N
